Wind_Speed
19 20 20 20 21 21 22 23 23 23 23 23 24 23 23 21 20 19 18 18 18 16 14 13 13 12 11 11 12 12 12 12 11 11 11 12 11 11 10 8 7 7 7 8 9 11 11 9 8 8 9 8 8 7 6 7 9 13 16 18 19 19 20 19 16 10 8 10 12 14 14 14 14 14 16 16 17 16 16 15 15 14 13 13 13
20 21 21 21 22 22 22 22 22 22 22 22 22 21 20 18 18 17 18 18 17 16 15 14 14 13 13 12 12 12 12 12 11 11 11 10 9 8 6 6 8 8 8 8 9 10 10 9 8 8 9 9 9 10 13 17 20 21 22 22 22 22 22 20 16 11 10 11 13 14 14 14 14 15 15 15 15 15 16 15 15 15 14 13 14
21 21 21 22 22 22 22 22 21 21 21 20 19 19 18 17 17 17 17 16 15 15 15 15 15 15 14 13 12 12 12 11 10 9 10 10 8 6 6 8 10 9 8 8 8 9 9 9 9 9 10 11 14 19 22 24 24 24 24 24 24 23 22 20 16 13 12 13 13 14 14 15 16 16 17 16 17 17 16 16 16 16 16 16 17
21 21 21 22 21 21 21 21 21 20 19 19 19 19 19 19 18 18 17 16 16 15 15 16 16 16 14 12 11 11 11 10 10 9 10 12 9 6 7 8 8 8 8 8 8 9 10 10 10 12 14 18 23 24 25 25 25 25 25 25 25 24 22 19 16 15 14 14 14 15 15 16 16 17 17 17 17 17 17 17 17 18 19 19 20
22 22 22 22 22 22 21 21 20 19 19 20 21 20 20 20 19 18 18 18 17 17 17 17 16 15 13 12 11 11 10 10 9 8 10 13 11 9 8 8 9 10 9 9 10 11 12 12 13 16 20 24 25 25 25 25 25 25 25 25 24 23 21 20 18 18 18 18 17 16 16 16 16 16 16 16 16 17 17 18 19 20 21 22 22
23 22 22 23 23 23 22 22 21 20 20 21 21 20 20 19 18 18 18 18 18 18 18 17 16 15 14 12 10 10 9 9 9 8 11 14 13 12 12 12 12 13 13 13 13 14 15 16 18 22 25 26 26 26 26 25 25 24 24 23 23 22 22 22 21 21 20 20 19 18 17 17 17 16 16 16 17 18 19 20 21 23 24 25 24
22 22 22 22 23 23 22 22 21 21 20 20 20 19 18 18 19 19 19 18 18 18 18 17 16 16 15 12 10 9 9 9 8 9 12 15 15 15 15 15 16 16 16 17 17 18 19 20 22 25 27 27 27 27 26 25 24 23 23 23 23 24 24 23 23 22 21 21 20 19 18 18 18 17 17 18 18 20 21 22 24 26 27 27 26
21 21 21 21 21 21 21 21 20 19 20 20 20 19 19 20 21 20 20 19 18 18 18 17 17 16 15 13 11 9 8 8 9 11 15 17 18 18 18 19 20 21 21 21 21 22 23 24 26 27 27 27 27 26 25 24 24 23 24 24 24 25 25 24 23 22 22 21 21 20 19 19 19 19 19 20 20 21 22 24 27 30 31 30 28
20 20 20 20 20 21 21 21 20 20 20 20 20 19 20 21 22 21 21 20 20 19 18 17 17 17 16 14 12 11 10 10 12 16 19 20 21 22 22 23 24 25 25 25 25 26 27 28 28 28 28 27 26 26 25 25 24 24 24 25 25 25 24 23 23 22 22 21 21 21 21 20 20 21 21 21 22 23 23 26 29 32 33 33 31
21 21 21 22 23 23 23 22 21 21 21 21 20 20 20 21 21 21 21 21 21 21 21 21 21 20 19 18 16 16 15 16 18 21 22 24 25 26 26 27 28 28 29 29 29 29 29 29 29 28 28 28 27 26 26 26 26 25 25 25 25 24 23 23 22 22 22 22 22 21 21 21 22 22 22 23 24 24 24 26 31 34 35 35 33
21 21 22 23 23 23 23 22 21 21 21 21 21 21 21 21 21 22 23 23 23 24 26 26 26 26 24 23 22 21 21 22 24 25 26 27 28 29 29 30 31 31 31 31 31 31 31 30 30 30 30 29 29 28 28 27 27 27 26 25 24 24 23 23 23 23 22 22 22 22 22 22 23 23 24 24 25 25 25 27 31 35 37 37 36
21 22 23 23 23 23 23 23 23 24 23 22 21 22 22 22 23 24 26 27 28 29 30 31 31 30 29 28 26 25 25 26 27 28 29 29 30 31 32 32 32 33 33 33 33 33 33 32 32 32 31 31 30 30 29 29 28 28 27 26 25 24 24 24 23 23 23 23 23 23 22 23 24 24 24 25 26 26 26 28 31 35 38 39 38
22 22 23 25 25 25 26 26 26 25 24 22 21 22 23 24 26 28 30 31 32 33 34 34 34 34 33 32 30 30 29 29 30 31 31 31 32 33 33 34 34 34 35 35 35 35 34 34 34 34 33 33 32 32 32 31 30 29 28 28 27 27 26 26 25 25 25 24 24 24 24 24 25 26 26 27 28 28 28 29 32 35 38 41 41
25 25 25 26 27 28 28 28 27 25 23 22 22 23 25 28 30 32 33 34 35 36 37 37 37 37 37 36 34 33 33 33 33 33 33 34 34 35 35 35 35 36 36 36 36 36 36 36 36 35 35 35 35 35 34 34 33 33 32 31 31 31 30 30 29 29 28 28 28 27 27 27 28 29 29 30 31 31 31 32 33 35 38 41 43
27 27 28 28 29 29 28 27 25 24 23 23 24 26 29 31 33 34 35 35 36 38 38 39 39 39 40 39 38 37 37 36 36 36 36 36 37 37 38 38 38 38 38 38 38 38 38 38 38 38 39 39 39 39 39 38 38 37 37 37 37 36 36 35 35 34 34 33 33 33 32 32 32 32 32 33 34 34 35 36 36 36 38 41 44
29 29 29 29 29 28 27 26 25 24 25 25 27 29 31 33 34 34 35 36 37 38 39 40 40 41 42 42 42 41 41 41 41 40 41 41 41 42 42 42 42 42 43 43 42 42 42 42 43 43 43 43 43 43 43 43 43 42 42 42 41 41 40 40 39 39 39 39 39 39 39 38 37 36 35 35 36 37 39 39 39 39 40 41 43
29 29 28 28 27 27 27 26 25 25 27 28 30 31 32 34 34 35 36 37 38 39 40 41 42 42 43 44 44 45 45 45 45 46 46 46 47 47 48 48 48 48 48 48 47 47 47 47 47 47 47 47 47 46 46 45 45 45 44 43 43 42 42 42 41 41 41 41 42 43 43 43 42 41 39 38 38 39 41 42 42 43 43 43 43
28 27 27 26 27 26 26 26 26 27 29 31 32 32 33 34 34 35 36 38 39 40 41 42 43 44 45 46 47 47 48 49 49 50 50 50 51 51 51 51 51 51 51 51 51 50 50 50 49 49 48 47 47 46 45 45 44 44 43 43 42 42 41 41 41 41 41 41 42 43 44 45 45 44 44 42 41 41 42 43 44 45 46 46 46
27 27 26 26 26 25 25 26 27 29 31 32 33 33 34 35 35 36 37 39 40 41 42 43 44 45 47 48 49 49 50 51 51 52 52 51 51 52 52 52 51 52 51 51 50 50 49 49 48 47 46 46 45 44 44 43 42 42 42 41 41 41 40 40 39 39 39 40 40 41 42 43 44 45 46 46 46 45 44 44 44 45 47 48 48
26 26 26 26 25 24 25 26 28 31 33 34 34 35 35 36 36 37 38 39 40 41 42 43 44 45 47 48 49 49 50 50 51 51 50 50 50 50 50 50 50 50 50 49 49 48 48 47 46 46 45 44 44 44 43 42 42 41 41 40 40 40 40 40 39 39 39 39 40 40 41 41 42 43 44 45 47 48 48 47 46 45 46 47 48
25 26 25 25 24 24 25 27 29 32 33 34 35 35 36 36 37 37 38 38 39 40 41 42 43 44 45 46 46 47 47 48 48 48 49 48 49 49 48 48 48 48 48 48 47 47 46 46 45 45 44 44 43 43 42 42 41 40 40 39 39 39 38 38 38 38 38 38 39 40 40 40 41 41 42 43 45 47 48 49 48 47 46 47 47
25 25 25 24 24 24 25 27 30 32 33 33 34 34 34 35 35 36 36 37 38 39 40 41 41 42 43 43 44 44 45 45 46 47 47 47 47 47 47 47 46 46 46 45 45 45 44 44 43 43 43 42 42 41 41 41 40 39 39 38 38 37 37 37 36 36 36 37 37 37 38 39 39 40 40 41 42 44 45 47 48 49 48 48 48
25 25 25 24 24 24 25 27 29 31 31 32 32 32 32 33 33 34 34 35 36 37 38 39 39 40 41 42 42 43 43 44 44 44 44 44 44 43 43 43 43 42 42 42 42 41 41 41 41 40 40 40 39 39 39 39 38 38 37 37 37 37 36 36 35 35 35 35 35 35 36 36 37 38 39 39 40 42 43 44 46 47 48 48 48
25 25 25 24 23 23 24 26 29 30 30 30 30 30 30 30 31 31 31 32 33 34 35 36 37 37 38 39 40 41 41 40 40 40 40 39 39 39 39 38 38 38 39 39 39 38 38 38 38 38 38 37 37 37 37 36 36 36 36 36 35 35 35 34 34 34 33 33 33 33 33 33 34 34 36 37 38 39 40 41 43 44 45 46 47
24 24 24 23 23 23 24 25 27 29 29 29 29 28 28 28 28 29 29 30 31 31 32 33 34 35 36 36 37 37 37 36 35 35 34 34 34 34 34 34 34 35 35 35 35 35 35 35 35 35 35 35 35 35 35 35 35 34 34 34 34 33 33 32 32 32 32 31 31 31 31 31 32 32 32 33 35 36 38 39 40 41 42 43 44
24 23 23 22 22 22 23 24 26 27 28 27 27 27 27 27 27 26 27 27 28 28 29 30 31 32 33 33 33 33 32 32 31 31 30 30 30 30 30 30 31 31 31 32 32 32 32 32 32 32 32 33 33 33 33 33 33 33 33 33 33 32 31 31 30 30 29 29 29 29 29 29 29 29 30 30 31 33 34 36 38 39 39 40 41
25 23 23 22 21 21 22 23 24 25 26 26 25 25 25 24 24 24 24 24 24 25 26 27 27 28 29 30 29 29 28 28 27 27 27 26 26 27 27 27 27 27 28 28 28 29 29 30 30 30 30 31 31 31 31 32 32 32 32 32 32 31 30 29 28 27 27 27 27 27 27 26 27 27 27 28 29 30 31 33 34 35 36 38 39
25 24 23 22 21 21 21 22 23 24 24 24 23 23 23 22 22 22 22 22 22 22 22 22 23 24 25 26 25 25 24 24 24 24 24 23 24 24 24 24 24 24 25 25 25 26 26 27 27 28 29 29 29 29 30 30 30 30 31 31 31 30 29 28 27 26 25 25 25 25 25 24 25 25 26 26 27 28 29 30 31 32 33 34 35
25 23 23 22 21 20 20 20 21 22 23 22 22 22 21 21 21 21 20 20 20 19 19 19 20 20 21 21 21 21 21 21 21 21 21 21 20 21 21 21 21 21 22 22 23 23 24 25 25 26 27 27 28 28 28 28 29 29 29 30 29 29 27 26 25 24 23 24 24 24 24 24 24 24 25 25 26 26 27 28 29 29 30 31 32
25 24 22 21 20 19 19 19 19 20 21 21 21 20 20 20 19 19 19 18 18 18 17 17 17 18 18 18 18 18 18 17 17 17 17 17 17 18 18 18 18 18 19 20 20 21 22 22 23 24 25 26 27 27 27 27 28 28 28 28 27 26 25 24 23 23 23 23 24 25 25 25 25 25 25 25 26 26 27 27 28 28 28 29 29
24 24 23 20 18 17 18 18 18 18 18 19 19 19 19 18 18 18 18 17 17 16 16 16 16 15 15 15 15 15 14 14 14 14 15 15 15 15 15 15 15 15 16 17 18 19 20 20 21 22 23 24 25 26 27 27 26 26 26 26 25 24 23 23 23 23 24 24 25 25 26 26 26 26 26 26 26 27 27 28 28 28 28 29 29
20 21 22 21 19 17 16 15 16 16 16 17 17 18 18 17 17 17 16 16 16 15 15 15 14 14 13 13 12 12 11 11 11 11 12 12 12 11 11 12 12 13 14 15 16 16 17 18 19 20 21 21 22 24 25 25 24 24 23 23 22 21 22 23 24 25 25 26 26 26 27 27 27 27 27 27 27 28 28 29 29 29 29 29 29
16 16 18 20 20 18 16 14 13 13 14 15 15 16 17 16 16 16 15 15 14 14 14 13 13 12 12 11 10 10 9 9 9 9 9 9 9 8 9 9 10 11 12 12 13 14 15 16 17 18 18 19 19 20 21 21 21 21 20 20 20 21 22 23 25 26 26 26 26 27 27 27 28 28 28 28 29 29 30 31 31 31 31 31 31
12 12 13 14 16 17 17 15 13 12 12 12 13 14 14 14 14 14 14 13 13 13 12 12 11 11 10 9 8 8 7 6 6 6 6 6 6 6 6 6 7 8 9 10 11 12 13 14 14 15 16 17 18 18 19 19 18 18 17 18 18 20 21 22 23 25 26 27 27 28 28 28 28 29 29 29 30 30 31 32 32 32 32 32 32
8 8 9 9 10 12 14 15 14 13 11 10 10 11 11 11 11 11 11 11 10 10 10 10 10 10 9 8 7 6 5 5 4 4 4 4 4 3 3 3 4 5 6 7 8 9 10 11 12 13 14 15 16 17 17 17 16 15 15 15 16 17 19 21 23 25 26 27 28 28 28 29 29 30 30 30 31 31 31 32 32 33 33 32 32
4 5 5 5 6 7 8 10 12 13 12 10 10 10 10 9 9 9 9 9 9 9 8 8 8 7 7 7 6 5 4 3 3 2 2 1 0 0 1 1 2 3 4 5 7 8 9 10 11 12 13 14 15 16 16 15 14 13 12 12 13 15 17 19 22 24 25 25 25 25 26 26 27 27 28 28 29 30 31 32 32 32 32 32 32
0 1 2 2 2 2 3 4 7 9 11 11 10 10 9 9 9 9 9 9 8 8 8 7 7 7 6 6 5 4 3 3 3 2 2 2 2 3 3 3 4 4 5 6 7 9 10 11 12 12 13 13 14 14 14 13 11 9 8 9 11 14 16 18 19 21 22 22 22 22 22 22 23 23 24 25 26 27 29 30 30 30 30 30 30
4 4 3 2 2 2 2 2 2 4 6 7 8 8 8 8 8 8 8 8 8 7 7 6 6 6 5 5 4 3 3 3 4 4 5 5 6 6 6 7 7 7 7 8 9 10 11 12 13 13 13 13 13 13 13 11 7 5 6 8 10 12 14 15 16 17 18 18 19 20 20 20 21 21 22 23 24 26 27 27 28 28 27 27 28
8 7 7 7 6 5 5 5 5 4 4 4 5 5 6 6 6 7 7 6 6 6 6 5 5 5 5 4 3 3 1 0 1 3 4 5 6 7 8 9 10 10 11 11 12 12 13 13 14 13 13 13 12 11 10 8 5 4 6 7 8 10 11 11 12 12 13 14 16 17 18 19 19 19 20 21 22 23 24 24 24 25 25 25 26
10 10 10 10 10 9 8 8 8 8 7 7 7 6 6 5 5 5 5 5 4 4 4 4 3 3 3 3 2 2 2 1 0 1 2 3 4 5 7 8 9 11 11 12 13 13 14 14 14 13 13 13 12 10 7 4 3 4 5 5 6 6 6 7 8 8 9 10 11 13 15 16 17 17 18 19 20 20 21 21 22 22 23 23 23
14 13 13 12 13 13 12 11 10 10 10 10 10 10 9 8 8 7 6 6 5 5 4 4 3 3 3 3 3 3 2 2 2 2 2 3 3 5 6 7 8 9 10 11 12 12 14 14 13 12 11 10 10 9 6 2 1 3 4 4 4 4 4 4 5 6 6 7 8 10 12 13 14 16 16 17 18 19 19 20 20 20 21 21 21
17 17 16 15 15 15 15 14 13 12 12 12 12 12 12 12 12 10 9 8 7 7 7 7 7 6 7 7 7 8 8 8 8 7 7 7 7 8 8 8 9 9 10 10 11 11 13 14 14 13 11 10 9 8 6 4 3 2 2 2 2 2 2 3 4 5 5 6 7 8 10 11 13 14 15 16 17 18 18 19 20 20 21 21 22
21 20 19 18 17 17 17 17 17 16 15 15 15 15 15 15 15 14 13 12 11 11 10 10 9 9 9 9 10 11 11 12 12 12 12 12 12 12 12 12 13 13 13 13 13 13 13 13 13 13 13 12 10 9 8 7 6 5 4 3 3 3 3 3 4 5 6 7 7 8 9 11 12 14 15 15 16 17 18 19 19 20 20 21 21
25 23 21 20 20 20 20 21 21 20 19 18 18 18 18 18 18 17 16 16 15 14 14 12 11 10 9 10 11 11 12 13 14 14 14 15 15 14 15 15 16 16 17 17 17 16 15 15 14 13 14 14 13 11 11 10 10 9 8 7 7 6 6 7 8 9 9 9 9 10 12 13 13 14 15 16 17 17 18 19 19 20 20 21 21
27 25 25 25 24 23 22 22 23 23 23 23 21 21 21 22 22 21 20 19 18 17 16 14 12 10 9 9 10 11 12 14 15 14 15 17 17 16 16 17 17 19 20 20 20 20 20 19 18 16 15 16 16 16 15 15 14 13 13 12 11 11 11 11 12 12 13 13 13 14 15 16 16 17 17 17 18 19 20 20 20 21 21 21 22
28 27 26 27 28 27 25 24 24 25 25 26 24 23 22 24 25 25 24 23 21 19 18 15 13 11 10 9 9 10 12 13 15 16 18 19 18 17 17 17 18 19 21 22 23 24 24 24 23 21 19 19 19 19 19 19 18 17 17 17 16 16 16 16 15 15 16 16 17 18 19 20 20 21 21 20 20 21 22 23 23 23 23 24 24
33 31 30 29 30 30 28 27 28 28 27 27 26 25 25 26 27 28 28 27 25 23 20 18 16 14 13 12 11 11 12 13 15 17 19 21 20 19 19 19 19 20 21 23 24 25 27 28 28 27 25 24 23 22 21 22 22 22 21 21 22 21 21 21 21 20 19 19 20 21 22 24 24 24 24 23 24 24 25 25 26 26 27 27 28
38 38 36 35 34 33 32 30 30 29 30 30 30 29 29 29 30 30 29 29 28 27 24 22 19 18 18 17 16 15 14 14 15 17 19 20 20 19 20 21 21 22 25 26 27 28 29 30 30 31 30 29 28 27 26 25 24 25 26 26 27 27 27 26 26 26 25 24 25 25 26 28 29 29 28 28 28 28 28 29 30 30 30 31 31
41 42 42 40 39 38 37 35 33 31 31 32 33 33 32 32 32 32 32 31 31 29 27 25 22 20 20 20 20 19 17 15 16 17 19 20 21 22 22 24 26 27 29 29 30 31 32 31 31 31 32 33 33 32 31 30 29 30 31 32 32 32 33 32 32 31 31 30 30 31 31 32 33 34 34 34 34 33 33 33 34 34 35 35 36
44 45 44 43 42 42 42 41 38 36 35 36 37 37 36 35 34 34 34 35 35 34 32 30 27 25 23 22 22 22 20 18 18 19 20 22 24 25 26 27 28 30 30 30 31 33 33 33 32 31 31 32 34 35 35 34 34 33 33 34 36 36 37 37 37 37 36 36 36 37 37 37 38 38 39 39 38 38 38 38 38 39 39 40 40
46 45 45 44 43 43 44 44 43 42 41 41 42 42 41 40 39 38 37 38 38 39 39 38 36 33 31 28 27 27 26 24 22 23 23 24 25 26 28 28 29 31 31 31 34 35 34 35 34 32 30 31 31 33 33 33 33 33 33 34 36 37 38 39 39 39 39 38 39 40 41 41 42 43 43 43 43 43 43 43 43 43 44 44 44
Wind_Direction
94 92 91 90 91 92 95 98 99 99 98 97 95 93 92 91 89 87 84 79 73 67 62 56 52 49 49 51 49 45 41 41 40 36 30 22 18 21 29 25 17 6 353 348 350 355 355 353 355 355 1 10 13 15 30 65 89 98 105 109 112 111 109 110 111 102 69 50 41 35 29 23 16 9 5 2 1 2 2 2 1 0 355 349 339
92 93 93 93 94 95 99 101 101 100 98 96 93 91 89 87 84 80 77 73 69 65 60 55 50 47 45 46 45 43 41 40 39 36 29 21 19 25 23 1 351 344 339 341 347 354 357 360 5 15 24 27 40 68 88 96 100 102 104 104 105 105 106 108 109 98 71 54 41 33 27 23 21 18 15 14 16 18 18 16 12 6 358 349 341
93 93 94 95 97 99 102 103 101 99 96 91 87 84 82 78 75 71 68 66 64 61 56 51 46 43 42 42 44 44 42 39 34 29 22 12 4 359 345 338 343 345 344 348 354 3 11 17 27 38 43 60 86 97 100 100 100 100 101 101 102 103 105 106 102 91 73 59 48 39 32 29 28 26 26 27 28 27 24 19 13 7 358 351 346
94 94 94 95 96 100 102 102 99 95 90 85 80 77 74 72 69 67 66 64 62 58 52 47 43 41 40 44 48 46 43 40 33 22 13 10 6 352 342 348 360 8 10 12 17 23 32 40 48 58 74 93 102 102 101 100 99 99 99 99 100 102 103 101 97 89 79 69 60 52 44 41 38 36 35 34 32 28 25 20 16 12 3 356 351
96 96 95 95 95 96 97 97 94 90 85 81 77 74 72 72 69 66 64 64 62 59 55 49 43 40 42 51 56 50 45 40 35 23 8 9 19 22 20 26 37 42 42 41 42 46 52 59 67 81 96 104 104 102 101 99 98 98 97 97 97 98 97 96 92 87 81 75 69 63 58 55 51 47 44 40 35 31 27 24 22 18 10 2 357
98 98 97 95 94 93 92 91 89 86 82 78 75 73 72 69 66 62 61 61 61 60 56 49 42 41 47 57 60 52 45 40 36 20 8 16 33 41 44 51 57 60 61 60 60 64 68 74 85 98 105 105 103 101 99 96 95 94 93 92 92 92 91 90 88 84 80 76 73 71 67 65 61 55 51 45 40 36 32 30 27 20 14 9 7
97 97 96 94 93 91 89 87 87 85 80 76 73 71 69 67 64 61 59 58 59 58 55 49 43 43 48 55 53 44 42 42 34 17 18 34 47 53 58 64 68 70 71 71 73 75 80 86 96 103 104 103 102 99 96 93 90 89 88 89 89 89 89 88 86 83 80 77 75 73 71 68 64 59 53 47 43 39 37 36 31 24 19 19 18
97 95 94 92 90 88 86 85 85 83 78 75 72 69 68 66 64 61 58 55 56 58 56 51 45 44 46 49 49 44 40 36 31 30 39 51 59 63 68 72 75 77 78 79 81 83 87 93 99 102 102 101 99 96 93 89 87 87 87 88 89 90 89 88 85 82 79 77 75 73 70 67 63 59 52 48 44 41 42 40 34 28 26 26 27
97 95 93 90 88 86 86 85 83 81 79 76 74 70 66 65 63 60 57 54 55 57 57 54 52 50 49 50 52 52 49 47 48 51 57 63 68 71 75 78 81 82 84 85 86 88 91 94 97 98 98 97 96 93 91 89 88 88 88 89 91 91 90 88 84 81 77 75 73 71 68 65 61 57 51 47 45 43 44 42 37 33 30 31 33
95 94 92 90 89 88 87 85 83 81 78 77 74 70 65 63 62 61 59 57 57 58 59 60 60 59 58 58 59 60 61 62 63 64 67 71 75 78 80 83 85 87 88 89 89 91 92 94 95 96 96 95 93 92 91 90 90 90 91 91 91 91 89 86 82 78 76 73 72 69 67 63 60 56 51 48 46 45 46 44 41 37 34 34 35
93 93 93 92 90 89 87 85 84 82 79 76 74 71 66 63 63 63 63 62 62 63 63 63 63 63 63 63 64 66 68 70 71 72 74 77 81 83 85 87 89 90 91 91 92 92 93 94 94 94 94 93 93 92 92 91 91 91 91 91 90 88 85 82 79 76 74 72 70 68 65 62 59 56 52 49 48 48 49 47 44 41 38 37 38
92 92 92 92 91 89 87 86 85 83 81 77 74 71 68 65 65 66 66 67 66 65 64 64 65 65 65 65 67 70 72 74 76 78 80 82 85 87 88 90 91 92 92 93 93 93 93 93 92 92 92 92 91 91 90 90 90 89 88 88 86 84 82 79 78 75 74 71 69 67 65 62 60 57 54 52 51 51 52 51 48 45 43 41 41
92 92 92 92 92 91 89 88 86 83 81 77 74 72 71 70 69 69 69 68 67 66 65 65 66 67 67 68 70 72 75 77 79 81 83 85 87 88 90 91 91 91 92 92 92 92 91 91 90 90 89 89 88 88 88 87 87 86 86 86 84 83 82 80 79 77 75 73 71 68 66 64 62 60 57 56 54 54 54 54 52 49 47 46 45
95 96 96 95 95 93 91 88 85 82 79 76 75 75 75 74 72 71 69 68 67 67 67 66 67 68 69 70 72 74 77 79 81 83 85 87 88 89 90 90 91 91 91 91 90 90 90 89 89 89 88 88 88 87 87 86 86 86 86 86 85 84 84 82 81 79 77 75 72 70 68 66 64 63 61 59 58 58 57 57 56 53 51 50 49
97 99 99 98 96 94 91 88 85 82 79 78 78 77 77 76 74 73 71 70 68 68 68 68 68 69 70 71 73 76 77 79 82 84 86 87 88 89 90 90 91 91 91 91 91 90 90 90 90 89 89 89 89 88 88 88 88 88 88 87 86 85 84 83 82 80 78 75 73 71 68 67 65 64 63 61 60 60 60 59 59 57 56 54 53
99 100 99 97 95 93 91 88 85 84 83 82 81 79 78 77 76 75 74 72 71 70 70 70 70 71 72 74 75 77 78 80 83 85 86 88 89 90 90 91 91 92 92 92 92 92 92 92 92 91 91 91 91 90 90 90 89 89 88 87 86 85 84 82 80 79 77 74 72 70 68 66 65 65 64 63 62 62 61 61 61 60 60 58 57
100 99 96 95 93 91 90 89 88 87 87 85 84 82 81 80 79 78 77 75 74 74 73 73 74 75 76 77 78 79 81 83 85 87 88 89 90 91 92 92 92 93 93 93 93 93 93 92 92 92 91 91 91 90 90 89 88 87 86 86 84 83 81 80 78 77 75 73 71 69 67 65 64 64 64 63 63 62 62 62 62 62 62 62 61
98 96 94 93 92 91 90 90 91 91 90 89 88 87 86 85 83 82 81 79 79 78 78 78 79 80 81 82 82 83 85 86 88 89 90 91 91 92 92 92 92 92 92 92 92 91 91 91 91 90 90 89 89 88 88 87 86 85 84 83 82 80 79 78 76 74 73 71 70 69 67 65 64 63 62 62 62 62 63 63 63 63 63 64 64
95 94 94 93 93 91 91 92 93 94 93 93 93 92 91 89 88 86 85 84 84 83 83 83 84 85 86 86 87 87 88 89 90 91 91 92 92 92 92 91 91 90 89 89 89 89 88 88 88 87 87 86 86 85 85 84 84 83 81 80 79 78 77 76 75 73 72 70 69 68 67 65 64 63 62 61 60 61 62 62 63 64 64 65 65
94 94 95 95 93 92 92 93 95 96 97 98 98 97 96 94 92 91 89 89 88 88 88 88 88 89 89 90 90 91 91 92 92 92 93 92 92 92 91 90 90 89 88 87 87 86 86 86 85 85 84 84 83 82 82 82 81 80 79 78 77 76 74 74 73 71 70 69 67 67 66 65 64 63 62 60 60 60 60 61 62 63 64 65 66
95 96 95 94 94 93 93 95 97 98 100 102 103 102 101 98 96 95 94 93 93 93 92 93 93 92 92 93 93 93 93 93 93 93 93 93 92 91 91 90 89 89 88 87 86 86 85 84 83 82 82 81 80 79 79 78 78 77 77 76 75 74 73 72 70 69 67 66 65 64 64 64 63 63 62 61 60 60 59 60 61 62 63 65 66
95 95 95 94 93 93 94 97 100 101 103 105 106 105 104 102 100 99 98 97 97 97 96 96 96 96 95 95 95 95 94 94 94 93 93 92 91 90 90 89 88 88 87 86 85 84 83 82 81 80 79 78 77 76 75 74 74 73 72 72 71 71 71 69 68 67 66 64 63 63 62 61 61 61 60 60 60 60 60 59 59 60 61 64 66
93 93 93 93 93 94 96 100 103 104 105 106 107 106 105 104 102 101 101 100 100 100 100 99 99 98 98 97 97 96 96 95 94 93 92 91 90 89 89 88 87 86 86 85 83 82 80 79 78 77 76 75 74 73 72 71 70 69 68 67 66 66 66 65 65 64 64 63 62 62 61 61 60 59 58 58 58 59 60 60 60 59 59 62 64
91 91 91 91 91 94 98 102 105 107 107 107 107 107 106 105 104 103 103 103 103 102 102 101 100 100 99 99 99 99 97 96 94 92 91 89 88 87 86 86 84 84 83 81 80 78 77 76 74 73 71 70 69 68 67 66 65 63 63 62 61 61 60 60 60 60 60 60 60 60 60 60 59 59 58 57 57 58 59 60 61 60 60 60 61
90 90 90 90 91 93 98 105 108 110 110 109 108 107 106 106 106 105 105 105 104 104 103 102 101 101 100 100 100 99 97 94 92 90 88 87 86 84 83 82 81 80 78 77 76 75 73 72 70 68 67 65 64 63 62 61 59 58 57 56 56 55 55 55 55 55 55 55 56 57 58 58 58 58 58 58 57 58 59 59 60 61 61 61 61
89 90 91 91 92 95 100 106 111 112 112 112 110 109 108 108 108 108 107 107 106 105 104 103 102 102 101 101 101 99 96 94 91 89 87 85 83 82 80 79 78 76 75 74 72 71 69 68 66 64 63 61 60 59 57 56 54 53 52 51 51 50 50 50 50 51 51 52 53 53 54 55 56 57 58 58 58 58 59 60 60 60 60 61 62
89 90 91 92 93 97 102 107 112 115 116 115 114 113 112 111 110 110 109 108 107 106 106 105 105 104 104 104 103 101 98 95 92 90 87 85 82 81 79 77 76 74 72 71 69 67 65 63 62 61 59 58 56 54 53 52 50 49 48 47 47 47 47 47 47 48 48 49 51 52 53 53 54 55 57 58 59 59 59 60 61 61 60 60 61
88 91 92 93 94 98 103 108 113 116 119 120 119 117 115 114 113 111 110 109 109 109 108 108 108 108 108 107 106 104 101 97 93 90 87 85 82 80 79 77 75 73 71 69 67 64 62 61 59 58 57 55 54 52 50 48 47 45 44 44 44 44 44 45 46 48 49 50 51 53 54 56 56 56 57 58 58 59 60 61 62 62 62 61 61
86 90 93 95 97 100 103 108 112 116 119 122 124 123 120 118 116 114 112 112 111 111 112 112 112 111 111 111 109 107 103 98 93 90 88 85 83 80 78 76 74 71 69 67 65 62 60 58 56 55 53 52 51 49 47 45 44 43 42 42 42 43 44 46 48 51 53 55 55 56 57 59 60 60 60 59 60 60 60 61 62 63 63 63 62
85 87 91 95 99 102 105 109 112 116 120 123 126 126 125 124 121 120 118 117 116 116 115 114 114 114 114 113 112 109 105 100 93 88 87 85 83 80 77 73 70 66 63 61 59 58 56 54 53 51 49 47 46 45 44 42 42 41 41 41 41 42 46 50 53 57 60 62 62 61 61 62 63 63 63 62 62 62 62 62 63 63 63 63 63
85 86 89 92 97 102 107 112 116 120 122 126 129 130 131 130 129 127 126 124 123 121 119 117 116 116 116 116 114 111 106 99 91 86 85 85 82 78 73 69 64 58 55 52 51 50 49 47 46 45 44 42 41 41 40 39 38 39 40 42 42 44 49 56 61 64 66 67 67 66 65 65 65 65 65 64 64 63 64 64 64 64 63 63 64
80 84 87 90 93 98 105 113 119 124 127 131 134 135 137 137 136 134 132 130 128 125 123 121 120 120 119 119 117 114 109 101 93 87 86 85 81 75 69 63 56 53 50 47 45 42 40 39 38 37 37 37 36 35 35 35 35 36 40 43 45 49 55 62 67 70 70 69 69 68 68 68 68 67 67 66 65 65 65 65 65 65 64 64 64
70 75 81 86 90 92 97 106 116 125 131 134 137 140 142 143 142 141 138 135 132 129 128 126 126 124 123 123 122 120 114 108 100 94 90 87 81 74 65 57 50 46 43 40 38 34 31 30 29 29 29 29 29 30 31 32 32 35 42 48 52 57 64 68 71 71 71 70 69 68 68 68 68 68 68 68 67 66 65 65 66 66 65 65 65
61 63 68 76 84 89 92 97 104 116 127 134 139 142 144 147 148 146 143 140 137 136 135 134 131 130 128 128 127 125 121 116 111 106 101 95 88 79 68 56 47 39 33 28 27 25 22 20 19 19 20 20 22 24 27 31 34 37 45 55 62 67 72 75 76 74 73 71 70 69 69 68 68 68 68 68 67 66 65 65 65 65 66 65 65
57 58 57 62 70 82 90 95 99 104 114 127 137 141 144 147 149 149 146 146 145 145 145 143 140 137 136 137 135 133 130 127 124 118 115 110 102 92 75 53 38 27 21 15 13 12 10 8 9 10 12 14 17 19 21 27 34 41 49 61 73 79 83 84 82 78 75 73 71 70 69 69 68 68 67 67 67 66 65 65 65 65 65 65 65
55 53 56 58 60 67 80 93 101 105 109 119 130 138 143 146 147 148 150 153 155 155 155 155 153 150 148 147 145 144 144 145 148 146 146 148 154 28 333 342 351 359 359 358 355 355 355 357 359 2 5 7 10 12 16 19 27 38 53 72 86 91 93 92 86 79 75 72 69 68 67 67 67 65 64 64 64 64 63 64 64 64 62 61 61
99 14 27 47 61 64 72 88 104 112 116 121 128 135 140 143 144 145 147 149 151 154 156 156 158 159 160 164 170 179 194 205 215 228 240 254 267 280 289 299 307 318 329 333 336 339 342 345 350 354 358 0 1 2 7 12 21 38 62 86 103 105 102 98 90 82 76 70 65 63 63 63 63 62 60 60 60 60 59 60 60 59 58 57 57
255 249 258 261 255 242 223 192 155 142 133 131 136 140 141 141 143 145 145 144 142 141 142 143 144 147 148 152 160 179 209 236 250 261 268 270 274 278 282 289 296 303 310 317 320 325 330 332 336 340 344 350 352 354 356 3 19 63 95 107 115 115 108 101 94 87 79 69 61 57 56 57 58 57 57 56 56 55 54 54 54 54 54 54 53
263 259 255 253 250 247 240 231 227 221 207 186 174 170 166 159 154 152 151 148 145 139 135 133 131 128 126 125 123 121 130 235 297 304 302 297 294 292 290 291 294 297 302 307 310 314 316 318 321 324 328 331 336 343 350 358 21 82 113 122 124 121 113 102 93 87 79 67 57 51 47 47 49 50 50 48 47 47 46 45 45 45 46 45 44
258 261 261 256 250 245 242 240 237 235 233 230 226 220 213 210 202 191 182 176 174 166 158 149 141 136 132 126 127 134 139 137 75 3 349 345 340 333 327 321 316 312 310 309 309 309 309 310 311 312 314 317 320 326 337 356 48 85 100 108 112 113 104 90 80 74 69 59 49 42 37 34 35 36 37 36 36 36 36 35 35 35 36 36 36
252 254 256 256 251 246 241 240 241 242 242 240 238 238 235 231 231 229 227 227 225 222 222 226 230 236 249 267 277 275 267 266 285 308 314 326 333 337 341 343 340 337 331 325 321 316 310 307 306 303 302 303 305 308 310 308 111 101 92 83 77 73 64 53 47 43 40 33 28 25 22 19 21 23 25 27 27 27 26 25 24 24 24 25 26
257 255 254 252 251 246 242 240 241 245 249 249 247 246 245 243 240 238 239 242 244 244 246 250 254 261 268 276 282 284 286 289 294 298 298 300 307 311 316 324 330 333 334 333 333 326 314 307 302 297 292 287 283 286 282 254 206 172 134 90 54 35 25 20 16 12 8 3 1 3 5 5 7 9 12 14 16 16 15 13 12 11 11 11 11
260 258 257 256 254 251 248 245 244 246 251 253 253 252 250 249 247 243 240 242 245 248 250 252 257 265 273 280 284 284 286 289 292 296 299 299 302 305 309 314 318 320 321 323 325 324 319 314 306 294 284 278 271 264 261 252 235 221 220 232 270 299 307 309 322 330 333 334 332 335 345 350 351 351 354 356 359 1 1 0 359 358 358 358 359
264 260 256 255 253 250 249 249 249 250 253 255 256 256 253 249 246 243 240 238 239 242 244 247 252 262 274 283 288 288 286 286 287 291 294 295 296 301 306 310 313 315 315 315 315 315 314 313 310 299 283 275 269 262 259 259 252 243 240 241 249 263 277 283 291 301 309 312 308 307 317 329 333 333 335 337 339 343 346 346 346 345 345 346 347
263 260 257 255 253 251 251 251 252 255 256 257 258 257 255 252 249 246 242 237 235 236 238 242 247 257 271 283 289 291 290 287 287 285 280 278 283 291 297 302 306 308 309 309 308 307 306 304 304 302 289 277 272 269 267 267 263 257 255 252 247 250 261 272 280 287 294 299 297 293 300 310 316 317 319 321 324 328 331 333 332 332 331 332 333
257 258 257 256 256 257 258 257 254 254 255 257 258 257 255 254 252 251 248 244 240 236 237 241 246 251 260 270 275 280 284 285 286 284 277 271 274 279 285 291 297 300 304 305 304 303 302 300 298 297 294 287 280 275 271 270 268 266 265 264 260 256 257 262 268 274 280 287 290 288 289 296 303 306 307 309 311 313 317 320 320 320 319 320 321
255 255 254 254 255 257 259 259 257 253 253 255 257 259 258 256 254 253 250 248 245 242 241 245 250 254 257 259 260 265 273 279 282 285 285 282 280 280 281 284 288 293 299 302 303 303 302 298 295 292 291 289 285 280 274 270 270 271 271 272 272 269 266 264 265 267 269 276 284 285 285 288 294 296 297 299 301 302 304 307 308 309 310 311 312
256 257 256 255 256 256 256 257 256 253 253 254 256 258 259 258 256 254 251 249 247 245 244 246 251 257 260 261 260 261 265 274 280 284 289 290 290 290 292 291 290 292 297 300 302 304 303 299 294 290 288 287 286 283 279 274 272 273 274 276 277 278 277 275 273 272 271 272 278 282 284 287 290 291 291 291 293 293 294 297 298 300 302 303 305
256 256 256 256 256 255 254 254 253 253 254 255 256 257 257 257 255 254 252 249 247 246 246 247 251 257 260 261 262 261 263 270 275 278 282 287 290 292 294 295 294 293 294 296 298 300 301 299 295 291 287 285 284 284 282 279 278 278 279 281 282 283 284 284 283 281 280 279 279 281 283 284 286 287 288 289 288 288 289 290 292 294 295 297 298
256 255 256 256 255 256 255 253 251 252 253 255 255 255 255 255 255 254 254 252 250 249 250 251 253 255 257 260 261 262 264 267 270 272 275 278 283 287 288 289 290 288 288 291 293 295 296 296 294 293 291 289 285 283 282 282 282 282 284 286 287 287 288 289 288 288 286 285 284 284 283 283 283 284 285 285 286 286 286 287 288 290 291 293 294
257 254 254 254 253 254 256 255 253 253 255 256 256 256 256 255 254 254 255 256 255 255 255 256 256 255 256 259 261 263 266 267 269 274 279 279 281 285 287 287 287 285 286 289 290 289 291 292 291 289 291 293 290 285 283 284 285 286 288 290 292 292 291 292 292 292 291 291 290 288 286 283 282 282 282 282 283 284 285 286 287 288 289 290 291
Height
10944 10944 10944 10944 10944 10944 10944 10944 10945 10944 10944 10944 10943 10943 10942 10942 10941 10940 10939 10938 10938 10937 10937 10936 10935 10934 10933 10932 10931 10930 10929 10929 10928 10927 10926 10925 10924 10923 10922 10921 10920 10919 10918 10917 10916 10916 10914 10913 10912 10911 10910 10908 10907 10906 10905 10904 10904 10904 10905 10906 10907 10909 10910 10910 10911 10911 10910 10909 10909 10908 10907 10906 10905 10903 10901 10899 10897 10895 10893 10891 10890 10889 10887 10885 10883
10945 10945 10945 10945 10945 10946 10946 10946 10947 10946 10946 10946 10945 10944 10944 10943 10942 10941 10940 10939 10939 10938 10938 10937 10936 10935 10933 10932 10931 10931 10930 10928 10927 10926 10926 10925 10923 10922 10922 10921 10920 10919 10918 10917 10916 10915 10914 10913 10912 10911 10910 10909 10907 10906 10906 10906 10906 10906 10907 10908 10909 10910 10911 10912 10913 10913 10912 10911 10910 10909 10908 10907 10905 10903 10901 10899 10897 10895 10894 10892 10890 10888 10886 10884 10882
10947 10947 10947 10947 10947 10947 10948 10948 10948 10948 10948 10947 10947 10946 10946 10945 10944 10943 10942 10941 10940 10939 10938 10937 10936 10935 10934 10933 10932 10931 10929 10928 10927 10926 10925 10924 10923 10922 10921 10920 10919 10918 10917 10917 10916 10915 10914 10913 10912 10911 10910 10909 10909 10908 10908 10908 10908 10909 10909 10910 10911 10912 10913 10914 10915 10915 10914 10913 10912 10910 10909 10907 10905 10903 10901 10899 10898 10896 10894 10892 10891 10888 10886 10883 10881
10949 10949 10949 10949 10949 10949 10950 10950 10950 10950 10950 10949 10948 10948 10947 10946 10945 10944 10943 10942 10941 10940 10939 10938 10937 10935 10934 10933 10932 10931 10929 10928 10927 10926 10925 10924 10922 10921 10920 10919 10918 10918 10917 10916 10915 10915 10914 10913 10913 10912 10911 10911 10911 10911 10911 10911 10911 10912 10912 10913 10913 10914 10915 10916 10917 10917 10916 10915 10913 10912 10911 10909 10907 10905 10903 10901 10899 10897 10896 10894 10891 10889 10886 10883 10880
10951 10951 10951 10951 10951 10952 10952 10952 10952 10952 10951 10951 10950 10949 10948 10947 10946 10945 10944 10943 10942 10941 10939 10938 10937 10936 10934 10933 10932 10931 10930 10928 10927 10926 10924 10923 10921 10920 10919 10918 10918 10917 10917 10916 10915 10915 10914 10914 10914 10913 10913 10913 10913 10914 10914 10914 10914 10914 10915 10915 10916 10917 10917 10918 10918 10918 10917 10916 10915 10914 10912 10911 10909 10907 10905 10903 10901 10899 10897 10895 10892 10889 10886 10882 10878
10953 10953 10953 10953 10953 10954 10953 10953 10953 10953 10953 10952 10951 10951 10950 10948 10947 10946 10945 10944 10943 10941 10940 10939 10937 10936 10934 10933 10932 10931 10930 10928 10927 10926 10924 10922 10921 10920 10919 10918 10917 10917 10917 10916 10916 10916 10915 10915 10915 10915 10915 10916 10916 10916 10916 10916 10917 10917 10917 10917 10918 10918 10919 10919 10919 10919 10918 10917 10916 10915 10914 10912 10911 10909 10907 10905 10903 10901 10899 10896 10893 10890 10886 10882 10877
10956 10956 10955 10955 10955 10955 10955 10955 10955 10955 10954 10953 10953 10952 10951 10949 10948 10947 10946 10945 10943 10942 10940 10939 10938 10936 10935 10934 10932 10931 10930 10929 10927 10926 10924 10922 10921 10920 10919 10918 10918 10918 10917 10917 10917 10917 10917 10917 10917 10917 10918 10918 10918 10919 10919 10919 10919 10919 10919 10919 10919 10919 10920 10920 10920 10920 10919 10918 10917 10916 10915 10914 10912 10911 10909 10907 10905 10902 10900 10897 10894 10890 10885 10881 10877
10958 10958 10957 10957 10957 10957 10956 10956 10956 10956 10955 10955 10954 10953 10952 10950 10949 10948 10947 10945 10944 10942 10941 10940 10938 10936 10935 10934 10933 10932 10930 10929 10928 10926 10924 10923 10921 10921 10920 10919 10919 10919 10919 10919 10919 10920 10920 10920 10920 10920 10921 10921 10921 10921 10921 10921 10921 10921 10921 10921 10921 10921 10921 10921 10921 10921 10920 10920 10919 10918 10916 10915 10913 10912 10910 10908 10906 10903 10901 10898 10894 10890 10885 10881 10877
10960 10959 10959 10959 10959 10958 10958 10958 10958 10958 10957 10956 10955 10954 10953 10951 10950 10949 10947 10946 10944 10943 10941 10940 10938 10937 10936 10934 10933 10932 10931 10930 10928 10926 10925 10924 10923 10922 10922 10921 10921 10921 10921 10921 10922 10922 10922 10923 10923 10923 10923 10923 10923 10923 10923 10923 10923 10923 10923 10923 10923 10923 10923 10923 10923 10922 10922 10921 10920 10919 10918 10916 10914 10913 10911 10909 10907 10904 10901 10898 10895 10890 10886 10882 10878
10961 10961 10961 10961 10960 10960 10960 10960 10960 10959 10958 10957 10956 10955 10954 10952 10951 10950 10948 10947 10945 10944 10942 10941 10939 10937 10936 10935 10934 10933 10932 10931 10929 10927 10926 10926 10925 10924 10924 10924 10924 10924 10924 10924 10924 10925 10925 10925 10926 10926 10926 10926 10925 10925 10925 10925 10925 10925 10925 10925 10925 10925 10925 10925 10925 10924 10923 10922 10921 10920 10919 10918 10916 10914 10912 10910 10908 10905 10902 10899 10895 10891 10887 10883 10879
10963 10963 10962 10962 10962 10962 10961 10961 10961 10960 10960 10959 10958 10956 10955 10953 10952 10951 10950 10948 10947 10945 10944 10942 10940 10939 10938 10937 10936 10934 10933 10932 10931 10929 10929 10928 10927 10927 10927 10927 10927 10927 10926 10927 10927 10927 10928 10928 10928 10928 10928 10928 10928 10928 10928 10928 10928 10928 10928 10928 10928 10928 10928 10927 10927 10926 10925 10924 10923 10922 10921 10919 10917 10915 10913 10911 10909 10906 10904 10900 10896 10893 10889 10884 10880
10964 10964 10964 10964 10964 10963 10963 10963 10963 10962 10961 10960 10959 10957 10956 10955 10954 10953 10951 10950 10949 10947 10946 10944 10942 10941 10940 10939 10938 10937 10935 10934 10933 10932 10931 10931 10931 10930 10930 10930 10930 10930 10930 10930 10930 10930 10931 10931 10931 10931 10931 10931 10931 10931 10931 10931 10931 10931 10931 10931 10931 10931 10930 10930 10929 10928 10928 10927 10925 10924 10923 10921 10919 10916 10915 10913 10911 10908 10905 10902 10898 10894 10891 10886 10882
10966 10966 10966 10966 10965 10965 10965 10965 10964 10964 10963 10962 10961 10959 10958 10957 10956 10955 10954 10953 10951 10950 10948 10947 10945 10944 10943 10942 10941 10939 10938 10937 10936 10935 10934 10934 10934 10934 10934 10934 10934 10934 10934 10934 10934 10934 10934 10935 10935 10935 10935 10935 10935 10935 10935 10935 10935 10935 10935 10935 10934 10934 10933 10933 10932 10931 10930 10929 10928 10926 10925 10923 10921 10918 10917 10915 10913 10910 10907 10903 10899 10896 10893 10888 10884
10968 10968 10968 10968 10967 10967 10967 10967 10966 10965 10965 10964 10963 10962 10960 10960 10959 10958 10957 10956 10954 10952 10951 10950 10949 10947 10946 10945 10944 10943 10941 10940 10939 10938 10938 10938 10938 10938 10938 10938 10938 10938 10938 10938 10938 10938 10939 10939 10939 10939 10939 10939 10939 10939 10938 10938 10938 10938 10938 10938 10937 10937 10936 10936 10935 10934 10933 10932 10931 10929 10928 10926 10923 10921 10919 10917 10915 10912 10909 10905 10901 10899 10895 10891 10887
10970 10970 10970 10970 10969 10969 10969 10968 10968 10967 10967 10966 10965 10964 10963 10962 10962 10961 10960 10959 10957 10956 10954 10953 10953 10952 10950 10949 10948 10947 10945 10944 10943 10943 10943 10943 10942 10942 10942 10942 10942 10942 10942 10943 10943 10943 10943 10943 10943 10943 10943 10943 10943 10943 10943 10943 10942 10942 10942 10942 10941 10940 10940 10939 10938 10937 10936 10935 10934 10932 10930 10928 10926 10924 10922 10920 10918 10915 10911 10907 10904 10901 10898 10894 10890
10973 10973 10972 10972 10972 10971 10971 10970 10970 10970 10969 10969 10968 10967 10967 10966 10965 10965 10964 10962 10961 10960 10958 10957 10957 10956 10955 10954 10952 10951 10950 10949 10949 10948 10948 10948 10947 10947 10947 10947 10948 10947 10947 10947 10947 10947 10947 10948 10948 10948 10948 10948 10947 10947 10947 10947 10947 10947 10946 10945 10945 10944 10944 10943 10942 10941 10940 10939 10937 10935 10933 10931 10929 10927 10925 10923 10921 10918 10913 10910 10906 10904 10901 10897 10894
10975 10975 10975 10975 10974 10974 10973 10973 10973 10972 10972 10972 10971 10971 10970 10969 10969 10968 10967 10966 10965 10964 10963 10962 10961 10961 10960 10959 10957 10956 10955 10955 10955 10954 10954 10953 10953 10953 10953 10953 10953 10953 10953 10953 10953 10953 10953 10953 10953 10953 10953 10953 10953 10952 10952 10952 10952 10951 10951 10950 10949 10948 10947 10946 10946 10945 10944 10942 10940 10938 10936 10934 10932 10930 10928 10926 10924 10921 10917 10913 10910 10907 10904 10900 10897
10978 10978 10978 10977 10977 10976 10976 10976 10976 10975 10975 10975 10975 10974 10974 10973 10973 10972 10971 10970 10969 10968 10968 10967 10967 10966 10965 10964 10963 10962 10962 10962 10961 10961 10960 10960 10960 10960 10960 10960 10960 10960 10959 10959 10959 10959 10959 10959 10959 10959 10959 10959 10958 10958 10957 10957 10956 10956 10955 10954 10953 10952 10951 10950 10950 10949 10948 10946 10944 10942 10940 10938 10936 10934 10931 10930 10927 10924 10920 10917 10914 10911 10908 10904 10901
10980 10980 10980 10980 10980 10980 10980 10979 10979 10978 10978 10979 10979 10978 10978 10978 10977 10977 10976 10975 10974 10973 10973 10972 10972 10972 10971 10970 10969 10968 10968 10968 10967 10967 10966 10966 10966 10966 10966 10966 10966 10966 10966 10966 10966 10965 10965 10965 10965 10965 10964 10964 10963 10963 10962 10961 10960 10960 10959 10959 10958 10956 10955 10954 10953 10953 10951 10950 10948 10945 10943 10942 10940 10938 10936 10934 10931 10928 10924 10921 10918 10915 10912 10909 10906
10983 10983 10983 10983 10983 10983 10983 10983 10982 10982 10982 10982 10982 10982 10982 10982 10982 10981 10981 10980 10979 10978 10978 10977 10977 10977 10976 10975 10974 10974 10974 10974 10973 10973 10972 10972 10972 10971 10971 10971 10971 10971 10971 10971 10971 10971 10971 10970 10970 10970 10970 10969 10968 10967 10967 10966 10965 10964 10964 10963 10962 10960 10959 10958 10957 10957 10955 10953 10951 10949 10947 10945 10944 10942 10940 10938 10935 10932 10929 10926 10923 10920 10917 10914 10911
10986 10986 10986 10986 10986 10986 10986 10986 10986 10986 10986 10986 10986 10986 10986 10986 10986 10985 10985 10984 10984 10983 10983 10982 10982 10982 10981 10980 10980 10979 10979 10979 10979 10978 10978 10977 10977 10976 10976 10976 10976 10976 10976 10976 10976 10976 10976 10975 10975 10975 10975 10974 10973 10972 10971 10970 10969 10969 10968 10967 10966 10964 10963 10962 10961 10960 10959 10957 10955 10953 10951 10949 10948 10946 10944 10942 10940 10936 10934 10931 10928 10925 10923 10919 10917
10989 10989 10989 10989 10989 10989 10989 10989 10989 10989 10990 10990 10990 10990 10990 10990 10989 10989 10989 10988 10988 10988 10987 10987 10986 10986 10986 10985 10985 10984 10984 10984 10984 10983 10983 10982 10981 10981 10981 10980 10980 10980 10980 10980 10980 10980 10980 10980 10979 10979 10979 10978 10977 10976 10975 10974 10973 10973 10972 10971 10970 10968 10967 10966 10965 10964 10962 10961 10959 10957 10955 10953 10952 10950 10948 10946 10944 10941 10938 10936 10933 10931 10928 10925 10923
10992 10991 10991 10991 10991 10991 10991 10992 10992 10993 10993 10994 10994 10994 10994 10994 10993 10993 10993 10992 10992 10991 10991 10991 10990 10990 10990 10989 10989 10989 10989 10988 10988 10988 10987 10987 10986 10986 10985 10985 10985 10985 10985 10985 10984 10984 10984 10983 10983 10983 10982 10982 10980 10979 10978 10977 10977 10976 10976 10974 10973 10972 10971 10970 10969 10967 10966 10964 10962 10960 10959 10957 10955 10954 10952 10951 10948 10945 10943 10940 10938 10936 10934 10931 10929
10995 10994 10994 10994 10994 10994 10994 10995 10995 10996 10996 10997 10997 10997 10997 10997 10997 10997 10997 10996 10996 10995 10995 10995 10994 10994 10994 10994 10993 10993 10993 10993 10992 10992 10992 10991 10990 10990 10990 10989 10989 10989 10989 10989 10988 10988 10988 10987 10987 10986 10986 10985 10984 10983 10982 10981 10980 10980 10979 10977 10976 10975 10974 10973 10972 10970 10969 10967 10966 10964 10962 10961 10959 10957 10956 10954 10952 10950 10947 10945 10943 10941 10939 10937 10935
10998 10997 10997 10997 10997 10997 10997 10998 10998 10999 10999 11000 11000 11001 11001 11001 11000 11000 11000 11000 10999 10999 10998 10998 10998 10998 10998 10998 10997 10997 10997 10997 10996 10996 10995 10995 10995 10994 10994 10993 10993 10993 10993 10993 10992 10992 10991 10991 10990 10990 10989 10988 10987 10986 10985 10985 10984 10983 10982 10981 10979 10978 10977 10976 10974 10973 10972 10970 10969 10967 10965 10964 10962 10960 10959 10958 10956 10954 10951 10949 10947 10945 10944 10942 10940
11000 11000 10999 11000 11000 11000 11000 11000 11001 11001 11002 11002 11003 11003 11003 11003 11003 11003 11003 11003 11003 11002 11002 11002 11002 11002 11002 11001 11001 11001 11000 11000 11000 10999 10999 10998 10998 10998 10997 10997 10997 10997 10996 10996 10996 10995 10995 10994 10993 10993 10992 10991 10990 10990 10989 10988 10987 10986 10985 10984 10982 10981 10980 10979 10977 10976 10975 10973 10971 10970 10968 10966 10965 10964 10962 10961 10959 10957 10955 10953 10951 10949 10948 10946 10944
11003 11002 11002 11002 11002 11002 11003 11003 11003 11004 11004 11005 11005 11005 11006 11006 11006 11006 11006 11006 11005 11005 11005 11005 11005 11005 11005 11004 11004 11004 11003 11003 11003 11002 11002 11001 11001 11001 11000 11000 11000 10999 10999 10999 10999 10998 10998 10997 10996 10996 10995 10994 10993 10993 10992 10991 10990 10989 10988 10986 10985 10984 10983 10981 10980 10979 10977 10976 10974 10972 10971 10969 10968 10967 10965 10964 10962 10961 10959 10956 10954 10953 10952 10950 10948
11005 11005 11004 11004 11005 11005 11005 11005 11005 11006 11006 11007 11007 11007 11007 11008 11008 11008 11008 11008 11008 11008 11008 11008 11008 11007 11007 11007 11007 11007 11006 11006 11006 11005 11004 11004 11004 11003 11003 11002 11002 11002 11001 11001 11001 11001 11000 11000 10999 10999 10998 10997 10996 10995 10994 10993 10992 10991 10990 10989 10988 10986 10985 10984 10982 10981 10979 10978 10976 10975 10973 10972 10971 10969 10968 10967 10965 10964 10962 10960 10958 10956 10955 10953 10952
11008 11007 11007 11007 11007 11007 11007 11008 11008 11008 11008 11009 11009 11009 11009 11010 11010 11010 11010 11010 11010 11010 11010 11010 11010 11010 11010 11010 11009 11009 11009 11009 11008 11008 11007 11007 11006 11006 11005 11005 11004 11004 11004 11004 11003 11003 11003 11002 11002 11001 11001 11000 10998 10997 10996 10996 10995 10994 10992 10991 10990 10989 10987 10986 10985 10983 10982 10980 10979 10977 10976 10974 10973 10972 10970 10969 10968 10966 10965 10963 10961 10960 10958 10956 10955
11010 11010 11009 11009 11010 11009 11009 11010 11010 11010 11010 11010 11010 11011 11011 11011 11012 11012 11011 11011 11011 11011 11011 11012 11012 11012 11012 11012 11012 11012 11011 11011 11011 11010 11009 11009 11009 11008 11008 11007 11007 11007 11006 11006 11006 11005 11005 11004 11004 11003 11003 11002 11001 11000 10999 10998 10997 10996 10995 10993 10992 10991 10989 10988 10987 10986 10984 10983 10981 10979 10978 10977 10976 10975 10973 10972 10970 10969 10968 10966 10964 10963 10961 10960 10958
11013 11012 11011 11012 11012 11012 11011 11011 11011 11011 11011 11012 11012 11012 11012 11013 11013 11013 11013 11013 11013 11013 11013 11013 11013 11013 11013 11013 11013 11013 11013 11013 11012 11012 11012 11011 11011 11010 11010 11009 11009 11009 11008 11008 11008 11007 11007 11006 11006 11005 11004 11004 11003 11002 11001 11000 10999 10998 10997 10996 10994 10993 10991 10990 10989 10988 10987 10985 10983 10982 10981 10980 10979 10977 10976 10974 10973 10972 10970 10969 10967 10966 10965 10963 10962
11015 11014 11014 11013 11014 11014 11013 11013 11013 11013 11013 11013 11013 11013 11014 11014 11014 11014 11014 11014 11014 11014 11014 11014 11014 11014 11014 11014 11014 11014 11014 11014 11014 11013 11013 11013 11012 11012 11011 11011 11011 11010 11010 11010 11009 11009 11008 11008 11007 11007 11006 11005 11005 11004 11003 11002 11001 11000 10999 10998 10996 10994 10993 10992 10991 10990 10989 10988 10986 10985 10984 10983 10982 10980 10979 10977 10976 10975 10974 10972 10970 10969 10968 10966 10965
11017 11016 11016 11016 11016 11015 11015 11015 11015 11015 11014 11014 11014 11014 11015 11015 11015 11015 11016 11016 11016 11016 11016 11016 11016 11015 11015 11015 11015 11015 11015 11015 11015 11014 11014 11014 11014 11013 11013 11012 11012 11012 11011 11011 11011 11010 11010 11009 11009 11008 11008 11007 11006 11006 11005 11004 11003 11002 11001 10999 10998 10996 10995 10994 10994 10993 10991 10990 10989 10988 10987 10986 10985 10983 10982 10981 10980 10978 10977 10975 10974 10972 10971 10970 10969
11018 11018 11018 11017 11017 11017 11017 11017 11017 11016 11016 11016 11016 11016 11016 11016 11016 11016 11017 11017 11017 11017 11017 11017 11017 11016 11016 11016 11016 11016 11016 11016 11015 11015 11015 11015 11014 11014 11014 11013 11013 11013 11012 11012 11012 11011 11011 11011 11010 11010 11009 11008 11008 11007 11006 11005 11004 11003 11002 11001 10999 10998 10997 10996 10996 10995 10993 10992 10992 10991 10989 10988 10987 10986 10985 10984 10983 10982 10981 10979 10978 10976 10975 10974 10972
11019 11019 11019 11019 11018 11018 11018 11018 11018 11018 11017 11017 11017 11017 11017 11017 11018 11017 11018 11018 11018 11018 11018 11017 11017 11017 11017 11017 11017 11017 11016 11016 11016 11016 11016 11016 11015 11015 11015 11014 11014 11013 11013 11013 11012 11012 11012 11011 11011 11010 11010 11009 11009 11008 11007 11006 11005 11004 11003 11002 11001 11000 10999 10998 10998 10997 10995 10995 10994 10993 10992 10991 10990 10989 10988 10987 10986 10985 10984 10983 10981 10980 10979 10977 10976
11020 11020 11020 11020 11019 11019 11019 11019 11019 11019 11018 11018 11018 11018 11018 11018 11018 11018 11018 11018 11018 11018 11018 11018 11018 11018 11017 11017 11017 11017 11017 11017 11017 11017 11017 11016 11016 11016 11015 11015 11015 11014 11014 11014 11013 11013 11012 11012 11011 11011 11011 11010 11009 11008 11008 11007 11006 11006 11005 11004 11002 11001 11000 11000 10999 10998 10997 10997 10996 10995 10994 10993 10992 10991 10990 10990 10989 10988 10987 10986 10985 10983 10982 10981 10979
11020 11020 11020 11020 11020 11020 11019 11019 11019 11019 11019 11019 11019 11019 11019 11019 11019 11019 11018 11018 11018 11018 11018 11018 11018 11018 11017 11017 11017 11018 11018 11018 11017 11017 11017 11017 11017 11016 11016 11016 11015 11015 11015 11014 11014 11014 11013 11012 11012 11011 11011 11010 11010 11009 11008 11008 11007 11007 11006 11005 11003 11002 11001 11001 11000 10999 10999 10998 10998 10997 10996 10995 10995 10994 10993 10992 10991 10990 10989 10988 10987 10986 10985 10984 10982
11019 11019 11019 11020 11020 11020 11020 11020 11020 11020 11020 11020 11020 11020 11020 11020 11019 11019 11019 11019 11018 11018 11018 11018 11018 11017 11017 11017 11017 11017 11018 11018 11018 11018 11017 11017 11017 11017 11016 11016 11016 11015 11015 11015 11015 11014 11013 11013 11012 11011 11011 11011 11010 11009 11009 11008 11008 11007 11006 11005 11004 11003 11002 11001 11001 11000 11000 10999 10999 10998 10998 10997 10996 10996 10995 10994 10993 10993 10992 10991 10990 10989 10988 10986 10985
11018 11018 11018 11019 11019 11019 11019 11019 11019 11019 11019 11019 11020 11020 11020 11020 11020 11019 11019 11019 11019 11019 11018 11018 11018 11018 11017 11017 11017 11017 11017 11017 11017 11017 11017 11017 11017 11017 11016 11016 11016 11015 11015 11015 11014 11014 11013 11013 11012 11012 11011 11011 11010 11010 11009 11009 11008 11007 11006 11006 11005 11004 11003 11003 11002 11001 11001 11000 11000 10999 10999 10998 10998 10997 10997 10996 10995 10995 10994 10993 10992 10990 10989 10988 10987
11016 11017 11017 11017 11018 11018 11018 11018 11018 11019 11018 11018 11018 11018 11018 11018 11018 11018 11018 11019 11018 11018 11018 11018 11018 11018 11017 11017 11017 11017 11016 11016 11016 11016 11016 11016 11016 11016 11016 11015 11015 11015 11015 11014 11014 11014 11013 11013 11012 11012 11011 11011 11011 11010 11009 11009 11008 11008 11007 11006 11006 11005 11005 11004 11003 11002 11002 11001 11000 11000 11000 10999 10999 10998 10998 10997 10997 10996 10995 10994 10993 10992 10991 10990 10989
11013 11014 11015 11015 11016 11016 11016 11016 11017 11017 11017 11017 11017 11017 11017 11017 11017 11017 11017 11017 11017 11017 11017 11017 11017 11017 11017 11016 11016 11016 11016 11015 11015 11015 11015 11015 11015 11015 11015 11015 11014 11014 11014 11014 11013 11013 11013 11013 11012 11012 11011 11011 11010 11010 11009 11009 11008 11008 11007 11007 11007 11006 11005 11005 11004 11003 11003 11002 11001 11000 11000 10999 10999 10999 10998 10998 10997 10997 10996 10995 10994 10993 10992 10991 10990
11010 11011 11011 11012 11013 11013 11014 11014 11015 11015 11015 11015 11016 11016 11016 11015 11015 11016 11016 11016 11016 11016 11016 11016 11016 11016 11015 11015 11015 11014 11014 11014 11013 11013 11013 11013 11013 11013 11013 11013 11013 11013 11013 11013 11013 11013 11013 11013 11012 11011 11011 11010 11010 11009 11009 11008 11008 11008 11007 11007 11007 11006 11005 11005 11004 11004 11003 11002 11001 11000 11000 10999 10999 10998 10998 10997 10997 10997 10996 10995 10995 10994 10993 10992 10990
11007 11007 11008 11009 11010 11011 11012 11012 11012 11013 11013 11013 11013 11014 11014 11014 11014 11014 11014 11014 11014 11014 11014 11014 11014 11014 11014 11013 11013 11013 11012 11012 11011 11011 11011 11011 11011 11011 11011 11011 11011 11012 11012 11012 11012 11012 11012 11012 11011 11011 11010 11010 11009 11009 11008 11008 11007 11007 11007 11006 11006 11005 11005 11004 11004 11003 11003 11002 11001 10999 10999 10999 10998 10997 10997 10996 10996 10996 10995 10995 10994 10993 10992 10992 10991
11003 11004 11005 11006 11006 11007 11007 11008 11009 11010 11010 11010 11011 11011 11011 11012 11012 11012 11012 11012 11012 11012 11012 11012 11012 11012 11011 11011 11011 11010 11010 11010 11010 11010 11009 11009 11008 11008 11009 11009 11009 11010 11010 11010 11010 11010 11010 11010 11010 11009 11009 11009 11008 11008 11008 11007 11006 11006 11005 11005 11005 11004 11004 11003 11003 11002 11002 11001 11000 10999 10998 10998 10997 10996 10996 10995 10995 10994 10994 10993 10993 10992 10991 10991 10990
10999 11000 11001 11001 11002 11002 11003 11005 11006 11006 11007 11007 11007 11008 11009 11009 11009 11009 11009 11009 11009 11009 11009 11009 11009 11009 11009 11009 11008 11008 11008 11007 11007 11008 11007 11006 11005 11006 11007 11007 11007 11007 11007 11008 11008 11008 11008 11007 11007 11007 11007 11007 11007 11007 11006 11006 11005 11004 11004 11003 11003 11002 11002 11002 11001 11001 11001 11000 10999 10997 10996 10996 10996 10995 10994 10994 10993 10992 10992 10991 10991 10990 10990 10989 10989
10995 10996 10997 10997 10998 10999 11001 11002 11002 11002 11002 11003 11003 11004 11005 11005 11006 11006 11006 11006 11006 11006 11006 11006 11006 11006 11006 11006 11006 11005 11005 11005 11005 11005 11004 11003 11004 11004 11005 11005 11005 11005 11005 11005 11005 11005 11005 11005 11004 11004 11004 11004 11004 11004 11004 11004 11004 11003 11002 11001 11000 11000 11000 11000 10999 10999 10999 10998 10998 10996 10994 10994 10994 10993 10992 10992 10991 10990 10990 10989 10988 10988 10987 10987 10986
10991 10991 10992 10993 10994 10996 10997 10997 10997 10997 10998 10999 10999 11000 11001 11002 11002 11002 11003 11003 11003 11003 11003 11004 11004 11004 11004 11003 11003 11002 11002 11002 11002 11002 11002 11002 11002 11003 11003 11003 11003 11003 11003 11003 11003 11003 11002 11002 11001 11001 11001 11001 11001 11001 11001 11001 11001 11001 11000 10999 10998 10998 10998 10997 10997 10997 10996 10996 10995 10994 10992 10991 10991 10990 10989 10989 10988 10988 10987 10986 10985 10985 10984 10984 10983
10987 10987 10987 10988 10989 10991 10992 10992 10993 10993 10994 10994 10995 10996 10996 10997 10998 10999 10999 10999 11000 11000 11000 11001 11001 11001 11001 11001 11000 11000 10999 10999 10999 10999 10999 10999 11000 11000 11000 11000 10999 11000 11000 11000 11000 11000 10999 10999 10998 10998 10998 10998 10997 10997 10997 10997 10998 10997 10997 10996 10996 10995 10995 10995 10995 10995 10994 10994 10993 10992 10991 10989 10987 10987 10986 10986 10985 10985 10984 10983 10982 10982 10981 10980 10980
10981 10981 10982 10983 10984 10985 10986 10987 10988 10989 10989 10989 10990 10991 10992 10993 10993 10994 10995 10996 10996 10997 10997 10998 10998 10998 10998 10998 10998 10997 10996 10996 10995 10995 10996 10996 10996 10997 10997 10996 10995 10995 10995 10995 10995 10995 10995 10995 10995 10994 10994 10994 10993 10993 10993 10993 10993 10993 10993 10992 10992 10992 10991 10991 10991 10991 10991 10991 10991 10990 10989 10987 10984 10983 10982 10981 10981 10981 10980 10980 10979 10978 10977 10977 10976
10975 10975 10976 10977 10978 10979 10980 10981 10983 10984 10984 10985 10985 10986 10987 10988 10989 10989 10990 10991 10992 10993 10994 10994 10994 10994 10994 10994 10994 10993 10993 10993 10992 10992 10993 10992 10992 10992 10993 10992 10991 10990 10990 10990 10991 10990 10990 10991 10990 10990 10990 10990 10989 10989 10989 10989 10989 10988 10988 10988 10987 10987 10986 10986 10986 10986 10987 10987 10987 10986 10986 10985 10982 10980 10978 10977 10976 10976 10975 10975 10974 10974 10973 10973 10972
10969 10970 10970 10970 10972 10973 10973 10975 10977 10978 10979 10980 10980 10981 10982 10983 10984 10984 10985 10985 10986 10987 10988 10989 10989 10990 10990 10990 10989 10989 10989 10989 10989 10989 10989 10989 10989 10988 10989 10988 10987 10986 10986 10987 10987 10986 10986 10986 10986 10985 10985 10985 10985 10985 10984 10984 10984 10983 10983 10983 10982 10982 10981 10981 10980 10980 10980 10981 10981 10980 10980 10980 10979 10977 10975 10973 10972 10971 10970 10970 10969 10969 10968 10968 10968